Tracking 28052 objects as of 25-Sep-2023
HD Live streaming from Space Station
objects crossing your sky now

STARLINK-3952

Track STARLINK-3952 now!
10-day predictions
STARLINK-3952 is classified as:


NORAD ID: 52534
Int'l Code: 2022-051B
Perigee: 546.0 km
Apogee: 547.8 km
Inclination: 53.2 °
Period: 95.4 minutes
Semi major axis: 6917 km
RCS: Unknown
Launch date: May 13, 2022
Source: United States (US)
Launch site: AIR FORCE WESTERN TEST RANGE (AFWTR)
Your satellite tracking list
Your tracking list is empty




NASA's NSSDC Master Catalog

Two Line Element Set (TLE):
1 52534U 22051B   23267.82319464  .00001413  00000-0  10681-3 0  9994
2 52534  53.2156 195.3104 0001322  91.6244 268.4899 15.08843429 76115
Source of the keplerian elements: AFSPC